Location: Rounton
(54.4000°N, 1.3500°W)
Time: 14:06:52
(UTC+00:00)

Transit 2A Rocket - Pass Details

Date: 01 December 2021
Orbit: 584 x 918 km, 66.7° (Epoch: 21 January)

Event Time Altitude Azimuth Distance (km) Brightness Sun altitude
Rises 11:56:03 0° 279° (W) 3,477 8.3 13.7°
Reaches altitude 10° 11:58:54 10° 291° (WNW) 2,574 7.6 13.7°
Maximum altitude 12:04:00 28° 349° (NNW) 1,671 6.4 13.7°
Drops below altitude 10° 12:09:12 10° 46° (NE) 2,620 7.4 13.7°
Sets 12:12:08 0° 58° (ENE) 3,552 8.1 13.6°
